Weather History for Crookston, MN

Change the Weather History Date:

Thursday, April 10, 2014

  Actual Average Record
Temperature  
Mean Temperature 44 °F -  
Max Temperature 53 °F 47 °F 69 °F (2006)
Min Temperature 35 °F 28 °F 10 °F (1997)
Degree Days  
Heating Degree Days 21    
Moisture  
Dew Point 32 °F    
Average Humidity 65    
Maximum Humidity 87    
Minimum Humidity 38    
Precipitation  
Precipitation 0.00 in - - ()
Sea Level Pressure  
Sea Level Pressure 29.76 in    
Wind  
Wind Speed 13 mph (WNW)    
Max Wind Speed 29 mph    
Max Gust Speed 38 mph    
Visibility 10 miles    
Events      
Averages and records for this station are not official NWS values.
T = Trace of Precipitation, MM = Missing Value Source: NWS Daily Summary

Daily Weather History Graph

Daily Weather History Graph

Search for Another Location

Airport:

Trip Planner

Search our weather history database for the weather conditions in past years. The results will help you decide how hot, cold, wet, or windy it might be!

Date:

Astronomy

Apr. 10, 2014 Rise Set
Actual Time 6:46 AM CDT 8:09 PM CDT
Civil Twilight 6:14 AM CDT 8:41 PM CDT
Nautical Twilight 5:36 AM CDT 9:20 PM CDT
Astronomical Twilight 4:54 AM CDT 10:02 PM CDT
Moon 3:36 PM CDT (4/10) 4:29 AM CDT (4/10)
Length of Visible Light 14h 26m
Length of Day
13h 22m
Waxing Gibbous, 80% of the Moon is Illuminated
Apr 10
Waxing Gibbous
Apr 15
Full
Apr 22
Last Quarter
Apr 29
New
May 6
First Quarter

Hourly Weather History & Observations

Time (CDT) Temp. Windchill Dew Point Humidity Pressure Visibility Wind Dir Wind Speed Gust Speed Precip Events Conditions
12:15 AM 41.0 °F 33.5 °F 33.8 °F 76% 29.64 in 10.0 mi WNW 13.8 mph - N/A   Clear
12:35 AM 41.0 °F 34.3 °F 33.8 °F 76% 29.64 in 10.0 mi West 11.5 mph - N/A   Clear
12:54 AM 39.2 °F 31.6 °F 32.0 °F 75% 29.64 in 10.0 mi West 12.7 mph - N/A   Clear
1:15 AM 39.2 °F 31.6 °F 32.0 °F 75% 29.64 in 10.0 mi West 12.7 mph - N/A   Clear
1:35 AM 39.2 °F 31.2 °F 30.2 °F 70% 29.65 in 10.0 mi West 13.8 mph - N/A   Clear
1:54 AM 39.2 °F 31.2 °F 30.2 °F 70% 29.65 in 10.0 mi West 13.8 mph - N/A   Clear
2:15 AM 39.2 °F 31.6 °F 30.2 °F 70% 29.65 in 10.0 mi West 12.7 mph - N/A   Clear
2:34 AM 39.2 °F 31.2 °F 30.2 °F 70% 29.65 in 10.0 mi West 13.8 mph - N/A   Clear
2:55 AM 39.2 °F 30.8 °F 30.2 °F 70% 29.64 in 10.0 mi West 15.0 mph - N/A   Clear
3:15 AM 37.4 °F 28.5 °F 30.2 °F 75% 29.64 in 10.0 mi West 15.0 mph - N/A   Clear
3:34 AM 37.4 °F 28.5 °F 30.2 °F 75% 29.64 in 10.0 mi West 15.0 mph - N/A   Clear
3:55 AM 37.4 °F 28.2 °F 30.2 °F 75% 29.64 in 10.0 mi West 16.1 mph - N/A   Clear
4:14 AM 37.4 °F 28.9 °F 30.2 °F 75% 29.64 in 10.0 mi West 13.8 mph - N/A   Clear
4:35 AM 37.4 °F 28.2 °F 30.2 °F 75% 29.65 in 10.0 mi West 16.1 mph - N/A   Clear
4:55 AM 35.6 °F 26.6 °F 30.2 °F 81% 29.66 in 10.0 mi West 13.8 mph - N/A   Clear
5:14 AM 37.4 °F 28.9 °F 30.2 °F 75% 29.66 in 10.0 mi West 13.8 mph - N/A   Clear
5:35 AM 37.4 °F 28.5 °F 28.4 °F 70% 29.67 in 10.0 mi West 15.0 mph - N/A   Clear
5:55 AM 37.4 °F 28.5 °F 28.4 °F 70% 29.68 in 10.0 mi West 15.0 mph - N/A   Clear
6:14 AM 35.6 °F 26.6 °F 28.4 °F 75% 29.69 in 10.0 mi West 13.8 mph - N/A   Clear
6:35 AM 35.6 °F 26.2 °F 28.4 °F 75% 29.70 in 10.0 mi West 15.0 mph - N/A   Clear
6:55 AM 35.6 °F 27.1 °F 28.4 °F 75% 29.71 in 10.0 mi WNW 12.7 mph - N/A   Clear
7:14 AM 35.6 °F 27.1 °F 28.4 °F 75% 29.72 in 10.0 mi WNW 12.7 mph - N/A   Clear
7:35 AM 37.4 °F 28.9 °F 28.4 °F 70% 29.73 in 10.0 mi WNW 13.8 mph - N/A   Clear
7:54 AM 37.4 °F 28.9 °F 30.2 °F 75% 29.74 in 10.0 mi WNW 13.8 mph - N/A   Clear
8:14 AM 37.4 °F 29.8 °F 30.2 °F 75% 29.74 in 10.0 mi WNW 11.5 mph - N/A   Clear
8:35 AM 39.2 °F 33.0 °F 30.2 °F 70% 29.75 in 10.0 mi West 9.2 mph - N/A   Clear
8:54 AM 39.2 °F 32.5 °F 32.0 °F 75% 29.75 in 10.0 mi West 10.4 mph - N/A   Clear
9:14 AM 41.0 °F 33.9 °F 32.0 °F 70% 29.76 in 10.0 mi WNW 12.7 mph - N/A   Clear
9:34 AM 42.8 °F 35.4 °F 30.2 °F 61% 29.76 in 10.0 mi WNW 15.0 mph - N/A   Clear
9:54 AM 44.6 °F 37.4 °F 32.0 °F 61% 29.76 in 10.0 mi WNW 16.1 mph - N/A   Clear
10:15 AM 44.6 °F 37.2 °F 32.0 °F 61% 29.77 in 10.0 mi WNW 17.3 mph - N/A   Clear
10:34 AM 46.4 °F 39.2 °F 32.0 °F 57% 29.77 in 10.0 mi WNW 18.4 mph - N/A   Clear
10:55 AM 46.4 °F 39.5 °F 33.8 °F 62% 29.78 in 10.0 mi WNW 17.3 mph - N/A   Clear
11:14 AM 46.4 °F 38.7 °F 33.8 °F 62% 29.79 in 10.0 mi WNW 20.7 mph 24.2 mph N/A   Clear
11:34 AM 48.2 °F - 32.0 °F 54% 29.79 in 10.0 mi NW 19.6 mph - N/A   Clear
11:55 AM 48.2 °F - 33.8 °F 58% 29.79 in 10.0 mi WNW 18.4 mph - N/A   Clear
12:14 PM 50.0 °F - 33.8 °F 54% 29.79 in 10.0 mi NW 18.4 mph 21.9 mph N/A   Clear
12:35 PM 51.8 °F - 32.0 °F 47% 29.79 in 10.0 mi WNW 18.4 mph 23.0 mph N/A   Clear
12:55 PM 51.8 °F - 32.0 °F 47% 29.79 in 10.0 mi NW 18.4 mph 21.9 mph N/A   Scattered Clouds
1:14 PM 51.8 °F - 32.0 °F 47% 29.79 in 10.0 mi WNW 15.0 mph - N/A   Scattered Clouds
1:35 PM 51.8 °F - 30.2 °F 44% 29.79 in 10.0 mi WNW 17.3 mph - N/A   Clear
1:55 PM 53.6 °F - 30.2 °F 41% 29.79 in 10.0 mi WNW 17.3 mph 24.2 mph N/A   Clear
2:14 PM 53.6 °F - 30.2 °F 41% 29.79 in 10.0 mi NW 20.7 mph 27.6 mph N/A   Clear
2:35 PM 53.6 °F - 33.8 °F 47% 29.79 in 10.0 mi WNW 20.7 mph - N/A   Clear
2:55 PM 53.6 °F - 32.0 °F 44% 29.78 in 10.0 mi WNW 20.7 mph 25.3 mph N/A   Clear
3:14 PM 53.6 °F - 28.4 °F 38% 29.78 in 10.0 mi WNW 21.9 mph 26.5 mph N/A   Scattered Clouds
3:35 PM 53.6 °F - 30.2 °F 41% 29.78 in 10.0 mi WNW 28.8 mph 32.2 mph N/A   Scattered Clouds
3:54 PM 53.6 °F - 30.2 °F 41% 29.79 in 10.0 mi NW 21.9 mph 38.0 mph N/A   Scattered Clouds
4:14 PM 51.8 °F - 33.8 °F 50% 29.79 in 10.0 mi NNW 17.3 mph - N/A   Scattered Clouds
4:35 PM 51.8 °F - 35.6 °F 54% 29.79 in 10.0 mi NW 15.0 mph 18.4 mph N/A   Scattered Clouds
4:54 PM 53.6 °F - 33.8 °F 47% 29.79 in 10.0 mi NW 18.4 mph 21.9 mph N/A   Scattered Clouds
5:14 PM 53.6 °F - 32.0 °F 44% 29.80 in 10.0 mi NW 18.4 mph 26.5 mph N/A   Scattered Clouds
5:35 PM 53.6 °F - 32.0 °F 44% 29.81 in 10.0 mi NW 20.7 mph 26.5 mph N/A   Mostly Cloudy
5:54 PM 51.8 °F - 32.0 °F 47% 29.81 in 10.0 mi NW 16.1 mph 26.5 mph N/A   Mostly Cloudy
6:15 PM 51.8 °F - 33.8 °F 50% 29.82 in 10.0 mi NW 11.5 mph - N/A   Scattered Clouds
6:35 PM 50.0 °F - 35.6 °F 58% 29.83 in 10.0 mi NNW 6.9 mph - N/A   Scattered Clouds
6:54 PM 51.8 °F - 35.6 °F 54% 29.82 in 10.0 mi NNW 9.2 mph - N/A   Scattered Clouds
7:15 PM 48.2 °F - 35.6 °F 62% 29.82 in 10.0 mi NW 6.9 mph - N/A   Clear
7:34 PM 46.4 °F 42.9 °F 35.6 °F 66% 29.82 in 10.0 mi NW 6.9 mph - N/A   Clear
7:55 PM 44.6 °F 41.4 °F 37.4 °F 76% 29.83 in 10.0 mi WNW 5.8 mph - N/A   Clear
8:14 PM 44.6 °F 41.4 °F 37.4 °F 76% 29.84 in 10.0 mi NW 5.8 mph - N/A   Clear
8:34 PM 42.8 °F 41.1 °F 37.4 °F 81% 29.84 in 10.0 mi North 3.5 mph - N/A   Clear
8:55 PM 42.8 °F - 35.6 °F 76% 29.85 in 10.0 mi Calm Calm - N/A   Clear
9:14 PM 42.8 °F - 35.6 °F 76% 29.86 in 10.0 mi Calm Calm - N/A   Clear
9:35 PM 41.0 °F - 35.6 °F 81% 29.87 in 10.0 mi Calm Calm - N/A   Clear
9:54 PM 39.2 °F - 33.8 °F 81% 29.87 in 10.0 mi Calm Calm - N/A   Clear
10:14 PM 39.2 °F - 35.6 °F 87% 29.87 in 10.0 mi Calm Calm - N/A   Clear
10:35 PM 39.2 °F 37.0 °F 35.6 °F 87% 29.86 in 10.0 mi SSE 3.5 mph - N/A   Clear
10:54 PM 39.2 °F 37.0 °F 35.6 °F 87% 29.86 in 10.0 mi SE 3.5 mph - N/A   Clear
11:15 PM 37.4 °F - 33.8 °F 87% 29.86 in 10.0 mi Calm Calm - N/A   Clear
11:35 PM 37.4 °F 34.9 °F 33.8 °F 87% 29.87 in 10.0 mi South 3.5 mph - N/A   Clear
11:54 PM 37.4 °F 33.8 °F 33.8 °F 87% 29.87 in 10.0 mi SSW 4.6 mph - N/A   Clear